Starlink 3330

operational
NORAD ID: 50836 Int'l Des: 2022-001 Owner: SPXS Country: US Constellation: starlink
LEOCIRCULAR

Über Starlink 3330

Beschreibung wird geladen...

Live-Position

3D-Globus wird geladen...

Nächste Überflüge

Höhenverlauf

Altitude vs Time

uPlot chart will show altitude changes over time

Zweizeiliger Elementsatz

1 50836U 22001AK 26061.66288451 .00001476 00000-0 11079-3 0 9991
2 50836 53.2175 210.4445 0000821 76.9478 283.1606 15.08841311229101
Epoch: 2. März 2026 • Age: 35 hours

Aktueller Status

Höhe 543.0 km
Geschwindigkeit 7.60 km/s
Subsatellitenpunkt 40.94°N, 82.66°W
Startdatum 6. Jan. 2022
Alter 4.1 years
Typ internet

Technische Details

Klassifizierung Payload
Masse 297.00 kg
Trockenmasse 275.00 kg
Gesamtmasse 297.00 kg
Länge 0.20 m
Durchmesser 2.80 m
Spannweite 9.00 m
Form Box + pan
Hersteller SPXS
Bus-Typ Starlink
Phasenstatus In Orbit
Besitzer/Staat SPXS/US

Große Konstellationen

Loading constellations...